Time,TemperatureF,DewpointF,PressureIn,WindDirection,WindDirectionDegrees,WindSpeedMPH,WindSpeedGustMPH,Humidity,HourlyPrecipIn,Conditions,Clouds,dailyrainin,SoftwareType,DateUTC
2013-02-20 00:00:00,1.8,-7.5,30.26,SSE,157,0.0,0.0,64,0.00,,,0.00,WUHU21636XXSP,2013-02-20 06:00:00,
2013-02-20 00:05:00,1.8,-7.5,30.26,SSE,157,0.0,0.0,64,0.00,,,0.00,WUHU21636XXSP,2013-02-20 06:05:00,
2013-02-20 00:10:00,1.8,-7.5,30.26,SSE,157,0.0,0.0,64,0.00,,,0.00,WUHU21636XXSP,2013-02-20 06:10:00,
2013-02-20 00:15:00,1.8,-7.5,30.27,SSE,157,0.0,0.0,64,0.00,,,0.00,WUHU21636XXSP,2013-02-20 06:15:00,
2013-02-20 00:20:00,1.8,-7.5,30.27,SSE,157,0.0,0.0,64,0.00,,,0.00,WUHU21636XXSP,2013-02-20 06:20:00,
2013-02-20 00:25:00,2.2,-7.1,30.27,SSE,157,0.0,0.0,64,0.00,,,0.00,WUHU21636XXSP,2013-02-20 06:25:00,
2013-02-20 00:30:00,1.8,-7.5,30.27,SSE,157,0.0,0.0,64,0.00,,,0.00,WUHU21636XXSP,2013-02-20 06:30:00,
2013-02-20 00:35:00,2.0,-7.3,30.28,SSE,157,0.0,0.0,64,0.00,,,0.00,WUHU21636XXSP,2013-02-20 06:35:00,
2013-02-20 00:40:00,1.8,-7.5,30.27,SSE,157,0.0,0.0,64,0.00,,,0.00,WUHU21636XXSP,2013-02-20 06:40:00,
2013-02-20 00:45:00,1.8,-7.5,30.28,SSE,157,0.0,0.0,64,0.00,,,0.00,WUHU21636XXSP,2013-02-20 06:45:00,
2013-02-20 00:50:00,1.8,-7.5,30.28,SSE,157,0.0,0.0,64,0.00,,,0.00,WUHU21636XXSP,2013-02-20 06:50:00,
2013-02-20 00:55:00,1.6,-7.7,30.29,SSE,157,0.0,0.0,64,0.00,,,0.00,WUHU21636XXSP,2013-02-20 06:55:00,
2013-02-20 01:00:00,1.6,-7.7,30.29,SSE,157,0.0,0.0,64,0.00,,,0.00,WUHU21636XXSP,2013-02-20 07:00:00,
2013-02-20 01:06:00,1.6,-7.4,30.29,SSE,157,0.0,0.0,65,0.00,,,0.00,WUHU21636XXSP,2013-02-20 07:06:00,
2013-02-20 01:11:00,1.6,-7.4,30.30,SSE,157,0.0,0.0,65,0.00,,,0.00,WUHU21636XXSP,2013-02-20 07:11:00,
2013-02-20 01:16:00,1.6,-7.4,30.30,SSE,157,0.0,0.0,65,0.00,,,0.00,WUHU21636XXSP,2013-02-20 07:16:00,
2013-02-20 01:21:00,1.6,-7.4,30.30,SSE,157,0.0,0.0,65,0.00,,,0.00,WUHU21636XXSP,2013-02-20 07:21:00,
2013-02-20 01:26:00,1.6,-7.4,30.30,SSE,157,0.0,0.0,65,0.00,,,0.00,WUHU21636XXSP,2013-02-20 07:26:00,
2013-02-20 01:31:00,1.6,-7.4,30.30,SSE,157,0.0,0.0,65,0.00,,,0.00,WUHU21636XXSP,2013-02-20 07:31:00,
2013-02-20 01:36:00,1.3,-7.7,30.31,SSE,157,0.0,0.0,65,0.00,,,0.00,WUHU21636XXSP,2013-02-20 07:36:00,
2013-02-20 01:41:00,1.3,-7.7,30.31,SSE,157,0.0,0.0,65,0.00,,,0.00,WUHU21636XXSP,2013-02-20 07:41:00,
2013-02-20 01:47:00,1.0,-7.6,30.31,SSE,157,0.0,0.0,66,0.00,,,0.00,WUHU21636XXSP,2013-02-20 07:47:00,
2013-02-20 01:52:00,1.0,-7.6,30.31,SSE,157,0.0,0.0,66,0.00,,,0.00,WUHU21636XXSP,2013-02-20 07:52:00,
2013-02-20 01:57:00,0.6,-8.0,30.31,SSE,157,0.0,0.0,66,0.00,,,0.00,WUHU21636XXSP,2013-02-20 07:57:00,
2013-02-20 02:05:00,0.6,-7.7,30.31,SSE,157,0.0,0.0,67,0.00,,,0.00,WUHU21636XXSP,2013-02-20 08:05:00,
2013-02-20 02:10:00,0.6,-7.7,30.31,SSE,157,0.0,0.0,67,0.00,,,0.00,WUHU21636XXSP,2013-02-20 08:10:00,
2013-02-20 02:15:00,0.5,-8.1,30.31,SSE,157,0.0,0.0,66,0.00,,,0.00,WUHU21636XXSP,2013-02-20 08:15:00,
2013-02-20 02:20:00,0.1,-8.5,30.31,NE,45,0.0,0.0,66,0.00,,,0.00,WUHU21636XXSP,2013-02-20 08:20:00,
2013-02-20 02:25:00,-0.1,-8.4,30.31,NE,45,0.0,0.0,67,0.00,,,0.00,WUHU21636XXSP,2013-02-20 08:25:00,
2013-02-20 02:30:00,-0.3,-8.6,30.31,NNE,22,0.0,0.0,67,0.00,,,0.00,WUHU21636XXSP,2013-02-20 08:30:00,
2013-02-20 02:35:00,-0.1,-8.4,30.31,NE,45,0.0,0.0,67,0.00,,,0.00,WUHU21636XXSP,2013-02-20 08:35:00,
2013-02-20 02:40:00,-0.1,-8.4,30.31,NE,45,0.0,0.0,67,0.00,,,0.00,WUHU21636XXSP,2013-02-20 08:40:00,
2013-02-20 02:45:00,0.5,-7.8,30.32,ENE,67,0.0,0.0,67,0.00,,,0.00,WUHU21636XXSP,2013-02-20 08:45:00,
2013-02-20 02:50:00,0.6,-7.7,30.32,ENE,67,0.0,0.0,67,0.00,,,0.00,WUHU21636XXSP,2013-02-20 08:50:00,
2013-02-20 02:55:00,0.6,-8.0,30.32,WNW,292,0.0,0.0,66,0.00,,,0.00,WUHU21636XXSP,2013-02-20 08:55:00,
2013-02-20 03:00:00,1.0,-7.9,30.32,East,90,0.0,0.0,65,0.00,,,0.00,WUHU21636XXSP,2013-02-20 09:00:00,
2013-02-20 03:05:00,1.3,-7.7,30.32,ENE,67,0.0,0.0,65,0.00,,,0.00,WUHU21636XXSP,2013-02-20 09:05:00,
2013-02-20 03:10:00,1.3,-7.7,30.32,East,90,0.0,0.0,65,0.00,,,0.00,WUHU21636XXSP,2013-02-20 09:10:00,
2013-02-20 03:15:00,1.3,-8.0,30.32,NE,45,0.0,0.0,64,0.00,,,0.00,WUHU21636XXSP,2013-02-20 09:15:00,
2013-02-20 03:20:00,1.3,-8.0,30.32,NE,45,0.0,0.0,64,0.00,,,0.00,WUHU21636XXSP,2013-02-20 09:20:00,
2013-02-20 03:25:00,1.3,-8.0,30.32,WNW,292,0.0,0.0,64,0.00,,,0.00,WUHU21636XXSP,2013-02-20 09:25:00,
2013-02-20 03:30:00,1.3,-8.0,30.32,SW,225,0.0,0.0,64,0.00,,,0.00,WUHU21636XXSP,2013-02-20 09:30:00,
2013-02-20 03:35:00,1.3,-8.0,30.33,SW,225,0.0,0.0,64,0.00,,,0.00,WUHU21636XXSP,2013-02-20 09:35:00,
2013-02-20 03:40:00,1.3,-8.0,30.33,SW,225,0.0,0.0,64,0.00,,,0.00,WUHU21636XXSP,2013-02-20 09:40:00,
2013-02-20 03:45:00,1.3,-8.0,30.32,North,0,0.0,0.0,64,0.00,,,0.00,WUHU21636XXSP,2013-02-20 09:45:00,
2013-02-20 03:50:00,1.3,-8.0,30.33,North,0,0.0,0.0,64,0.00,,,0.00,WUHU21636XXSP,2013-02-20 09:50:00,
2013-02-20 03:55:00,1.3,-8.0,30.33,ENE,67,0.0,0.0,64,0.00,,,0.00,WUHU21636XXSP,2013-02-20 09:55:00,
2013-02-20 04:00:00,1.3,-8.0,30.33,NE,45,0.0,0.0,64,0.00,,,0.00,WUHU21636XXSP,2013-02-20 10:00:00,
2013-02-20 04:05:00,1.3,-8.0,30.33,NE,45,0.0,0.0,64,0.00,,,0.00,WUHU21636XXSP,2013-02-20 10:05:00,
2013-02-20 04:10:00,1.3,-7.7,30.33,NE,45,0.0,0.0,65,0.00,,,0.00,WUHU21636XXSP,2013-02-20 10:10:00,
2013-02-20 04:14:00,1.3,-7.7,30.34,ESE,112,0.0,0.0,65,0.00,,,0.00,WUHU21636XXSP,2013-02-20 10:14:00,
2013-02-20 04:19:00,1.3,-8.0,30.34,ENE,67,0.0,0.0,64,0.00,,,0.00,WUHU21636XXSP,2013-02-20 10:19:00,
2013-02-20 04:24:00,1.3,-8.0,30.33,NNE,22,0.0,0.0,64,0.00,,,0.00,WUHU21636XXSP,2013-02-20 10:24:00,
2013-02-20 04:29:00,1.3,-7.7,30.33,NNE,22,0.0,0.0,65,0.00,,,0.00,WUHU21636XXSP,2013-02-20 10:29:00,
2013-02-20 04:34:00,1.3,-7.7,30.34,NNE,22,0.0,0.0,65,0.00,,,0.00,WUHU21636XXSP,2013-02-20 10:34:00,
2013-02-20 04:39:00,1.3,-7.7,30.34,ESE,112,0.0,0.0,65,0.00,,,0.00,WUHU21636XXSP,2013-02-20 10:39:00,
2013-02-20 04:44:00,1.3,-7.4,30.34,ESE,112,0.0,0.0,66,0.00,,,0.00,WUHU21636XXSP,2013-02-20 10:44:00,
2013-02-20 04:49:00,1.3,-7.4,30.34,ESE,112,0.0,0.0,66,0.00,,,0.00,WUHU21636XXSP,2013-02-20 10:49:00,
2013-02-20 04:54:00,1.3,-7.4,30.34,ESE,112,0.0,0.0,66,0.00,,,0.00,WUHU21636XXSP,2013-02-20 10:54:00,
2013-02-20 04:59:00,1.3,-7.4,30.35,SW,225,0.0,0.0,66,0.00,,,0.00,WUHU21636XXSP,2013-02-20 10:59:00,
2013-02-20 05:04:00,1.3,-7.4,30.35,SW,225,0.0,0.0,66,0.00,,,0.00,WUHU21636XXSP,2013-02-20 11:04:00,
2013-02-20 05:09:00,1.3,-7.4,30.34,SW,225,0.0,0.0,66,0.00,,,0.00,WUHU21636XXSP,2013-02-20 11:09:00,
2013-02-20 05:14:00,1.6,-7.1,30.35,SW,225,0.0,0.0,66,0.00,,,0.00,WUHU21636XXSP,2013-02-20 11:14:00,
2013-02-20 05:19:00,1.5,-7.2,30.35,SW,225,0.0,0.0,66,0.00,,,0.00,WUHU21636XXSP,2013-02-20 11:19:00,
2013-02-20 05:24:00,1.3,-7.4,30.34,SW,225,0.0,0.0,66,0.00,,,0.00,WUHU21636XXSP,2013-02-20 11:24:00,
2013-02-20 05:29:00,1.3,-7.4,30.35,SW,225,0.0,0.0,66,0.00,,,0.00,WUHU21636XXSP,2013-02-20 11:29:00,
2013-02-20 05:34:00,1.3,-7.1,30.35,SW,225,0.0,0.0,67,0.00,,,0.00,WUHU21636XXSP,2013-02-20 11:34:00,
2013-02-20 05:40:00,0.6,-7.7,30.35,SW,225,0.0,0.0,67,0.00,,,0.00,WUHU21636XXSP,2013-02-20 11:40:00,
2013-02-20 05:45:00,0.6,-7.4,30.36,SW,225,0.0,0.0,68,0.00,,,0.00,WUHU21636XXSP,2013-02-20 11:45:00,
2013-02-20 05:49:00,0.6,-7.7,30.36,SW,225,0.0,0.0,67,0.00,,,0.00,WUHU21636XXSP,2013-02-20 11:49:00,
2013-02-20 05:54:00,0.6,-7.7,30.36,SW,225,0.0,0.0,67,0.00,,,0.00,WUHU21636XXSP,2013-02-20 11:54:00,
2013-02-20 05:59:00,0.6,-7.7,30.36,SW,225,0.0,0.0,67,0.00,,,0.00,WUHU21636XXSP,2013-02-20 11:59:00,
2013-02-20 06:04:00,0.5,-7.8,30.35,SW,225,0.0,0.0,67,0.00,,,0.00,WUHU21636XXSP,2013-02-20 12:04:00,
2013-02-20 06:09:00,0.3,-8.0,30.35,South,180,0.0,0.0,67,0.00,,,0.00,WUHU21636XXSP,2013-02-20 12:09:00,
2013-02-20 06:14:00,0.3,-8.0,30.35,South,180,0.0,0.0,67,0.00,,,0.00,WUHU21636XXSP,2013-02-20 12:14:00,
2013-02-20 06:19:00,0.3,-7.7,30.34,South,180,0.0,0.0,68,0.00,,,0.00,WUHU21636XXSP,2013-02-20 12:19:00,
2013-02-20 06:24:00,0.3,-8.0,30.35,South,180,0.0,0.0,67,0.00,,,0.00,WUHU21636XXSP,2013-02-20 12:24:00,
2013-02-20 06:29:00,0.5,-7.8,30.35,South,180,0.0,0.0,67,0.00,,,0.00,WUHU21636XXSP,2013-02-20 12:29:00,
2013-02-20 06:34:00,0.5,-7.8,30.35,South,180,0.0,0.0,67,0.00,,,0.00,WUHU21636XXSP,2013-02-20 12:34:00,
2013-02-20 06:39:00,0.5,-7.5,30.35,South,180,0.0,0.0,68,0.00,,,0.00,WUHU21636XXSP,2013-02-20 12:39:00,
2013-02-20 06:44:00,0.6,-7.7,30.35,SW,225,0.0,0.0,67,0.00,,,0.00,WUHU21636XXSP,2013-02-20 12:44:00,
2013-02-20 06:49:00,0.6,-7.7,30.35,SW,225,0.0,0.0,67,0.00,,,0.00,WUHU21636XXSP,2013-02-20 12:49:00,
2013-02-20 06:54:00,0.6,-7.4,30.36,SW,225,0.0,0.0,68,0.00,,,0.00,WUHU21636XXSP,2013-02-20 12:54:00,
2013-02-20 06:59:00,0.5,-7.8,30.36,SSW,202,0.0,0.0,67,0.00,,,0.00,WUHU21636XXSP,2013-02-20 12:59:00,
2013-02-20 07:04:00,0.6,-7.7,30.36,SSW,202,0.0,0.0,67,0.00,,,0.00,WUHU21636XXSP,2013-02-20 13:04:00,
2013-02-20 07:09:00,0.6,-7.7,30.35,South,180,0.0,0.0,67,0.00,,,0.00,WUHU21636XXSP,2013-02-20 13:09:00,
2013-02-20 07:14:00,0.8,-7.5,30.36,South,180,0.0,0.0,67,0.00,,,0.00,WUHU21636XXSP,2013-02-20 13:14:00,
2013-02-20 07:19:00,0.8,-7.5,30.36,South,180,0.0,0.0,67,0.00,,,0.00,WUHU21636XXSP,2013-02-20 13:19:00,
2013-02-20 07:24:00,0.6,-7.7,30.36,South,180,0.0,0.0,67,0.00,,,0.00,WUHU21636XXSP,2013-02-20 13:24:00,
2013-02-20 07:29:00,0.8,-7.5,30.36,South,180,0.0,0.0,67,0.00,,,0.00,WUHU21636XXSP,2013-02-20 13:29:00,
2013-02-20 07:34:00,0.6,-7.7,30.36,South,180,0.0,0.0,67,0.00,,,0.00,WUHU21636XXSP,2013-02-20 13:34:00,
2013-02-20 07:39:00,0.8,-7.8,30.36,South,180,0.0,0.0,66,0.00,,,0.00,WUHU21636XXSP,2013-02-20 13:39:00,
2013-02-20 07:44:00,1.0,-7.3,30.36,South,180,0.0,0.0,67,0.00,,,0.00,WUHU21636XXSP,2013-02-20 13:44:00,
2013-02-20 07:49:00,1.3,-7.4,30.36,SW,225,0.0,0.0,66,0.00,,,0.00,WUHU21636XXSP,2013-02-20 13:49:00,
2013-02-20 07:54:00,1.5,-6.9,30.36,SSW,202,0.0,0.0,67,0.00,,,0.00,WUHU21636XXSP,2013-02-20 13:54:00,
2013-02-20 07:59:00,1.8,-6.3,30.36,SSW,202,0.0,0.0,68,0.00,,,0.00,WUHU21636XXSP,2013-02-20 13:59:00,
2013-02-20 08:04:00,1.8,-6.3,30.36,SSW,202,0.0,0.0,68,0.00,,,0.00,WUHU21636XXSP,2013-02-20 14:04:00,
2013-02-20 08:09:00,2.2,-6.2,30.36,SW,225,0.0,0.0,67,0.00,,,0.00,WUHU21636XXSP,2013-02-20 14:09:00,
2013-02-20 08:14:00,2.5,-6.2,30.36,WSW,247,0.0,0.0,66,0.00,,,0.00,WUHU21636XXSP,2013-02-20 14:14:00,
2013-02-20 08:19:00,2.7,-6.3,30.36,SW,225,0.0,0.0,65,0.00,,,0.00,WUHU21636XXSP,2013-02-20 14:19:00,
2013-02-20 08:24:00,3.4,-5.4,30.36,SSW,202,0.0,0.0,66,0.00,,,0.00,WUHU21636XXSP,2013-02-20 14:24:00,
2013-02-20 08:29:00,3.7,-5.4,30.36,SSW,202,0.0,0.0,65,0.00,,,0.00,WUHU21636XXSP,2013-02-20 14:29:00,
2013-02-20 08:34:00,3.9,-5.2,30.36,SSE,157,0.0,0.0,65,0.00,,,0.00,WUHU21636XXSP,2013-02-20 14:34:00,
2013-02-20 08:39:00,4.4,-4.7,30.36,SSW,202,0.0,0.0,65,0.00,,,0.00,WUHU21636XXSP,2013-02-20 14:39:00,
2013-02-20 08:44:00,5.0,-4.4,30.36,SSW,202,0.0,0.0,64,0.00,,,0.00,WUHU21636XXSP,2013-02-20 14:44:00,
2013-02-20 08:49:00,6.0,-3.5,30.36,SSW,202,0.0,0.0,64,0.00,,,0.00,WUHU21636XXSP,2013-02-20 14:49:00,
2013-02-20 08:54:00,6.0,-3.9,30.36,SW,225,0.0,0.0,63,0.00,,,0.00,WUHU21636XXSP,2013-02-20 14:54:00,
2013-02-20 08:59:00,6.7,-2.8,30.36,SSW,202,0.0,0.0,64,0.00,,,0.00,WUHU21636XXSP,2013-02-20 14:59:00,
2013-02-20 09:04:00,7.2,-2.7,30.36,SE,135,0.0,0.0,63,0.00,,,0.00,WUHU21636XXSP,2013-02-20 15:04:00,
2013-02-20 09:09:00,7.7,-2.3,30.36,South,180,0.0,0.0,63,0.00,,,0.00,WUHU21636XXSP,2013-02-20 15:09:00,
2013-02-20 09:14:00,8.2,-1.4,30.36,South,180,0.0,0.0,64,0.00,,,0.00,WUHU21636XXSP,2013-02-20 15:14:00,
2013-02-20 09:19:00,8.6,-2.1,30.36,NE,45,0.0,0.0,61,0.00,,,0.00,WUHU21636XXSP,2013-02-20 15:19:00,
2013-02-20 09:24:00,8.4,-2.3,30.36,ENE,67,0.0,0.0,61,0.00,,,0.00,WUHU21636XXSP,2013-02-20 15:24:00,
2013-02-20 09:29:00,9.1,-1.6,30.36,East,90,0.0,0.0,61,0.00,,,0.00,WUHU21636XXSP,2013-02-20 15:29:00,
2013-02-20 09:34:00,9.3,-1.0,30.37,SSE,157,0.0,0.0,62,0.00,,,0.00,WUHU21636XXSP,2013-02-20 15:34:00,
2013-02-20 09:39:00,9.8,-0.6,30.37,SSE,157,0.0,0.0,62,0.00,,,0.00,WUHU21636XXSP,2013-02-20 15:39:00,
2013-02-20 09:44:00,10.3,-1.2,30.37,SW,225,0.0,0.0,59,0.00,,,0.00,WUHU21636XXSP,2013-02-20 15:44:00,
2013-02-20 09:49:00,9.8,-1.7,30.36,SSW,202,0.0,0.0,59,0.00,,,0.00,WUHU21636XXSP,2013-02-20 15:49:00,
2013-02-20 09:54:00,10.3,-0.8,30.37,SSE,157,0.0,0.0,60,0.00,,,0.00,WUHU21636XXSP,2013-02-20 15:54:00,
2013-02-20 09:59:00,10.3,-1.2,30.37,West,270,0.0,0.0,59,0.00,,,0.00,WUHU21636XXSP,2013-02-20 15:59:00,
2013-02-20 10:04:00,10.0,-1.5,30.37,West,270,0.0,0.0,59,0.00,,,0.00,WUHU21636XXSP,2013-02-20 16:04:00,
2013-02-20 10:09:00,10.7,-0.8,30.36,West,270,0.0,0.0,59,0.00,,,0.00,WUHU21636XXSP,2013-02-20 16:09:00,
2013-02-20 10:14:00,12.0,0.4,30.37,SE,135,0.0,0.0,59,0.00,,,0.00,WUHU21636XXSP,2013-02-20 16:14:00,
2013-02-20 10:19:00,13.1,0.7,30.37,SW,225,0.0,0.0,57,0.00,,,0.00,WUHU21636XXSP,2013-02-20 16:19:00,
2013-02-20 10:24:00,14.1,1.2,30.37,SW,225,0.0,0.0,56,0.00,,,0.00,WUHU21636XXSP,2013-02-20 16:24:00,
2013-02-20 10:29:00,13.1,0.4,30.37,West,270,0.0,0.0,56,0.00,,,0.00,WUHU21636XXSP,2013-02-20 16:29:00,
2013-02-20 10:34:00,14.1,0.4,30.38,West,270,0.0,0.0,54,0.00,,,0.00,WUHU21636XXSP,2013-02-20 16:34:00,
2013-02-20 10:39:00,13.5,0.0,30.37,WSW,247,0.0,0.0,54,0.00,,,0.00,WUHU21636XXSP,2013-02-20 16:39:00,
2013-02-20 10:44:00,14.1,0.4,30.38,WSW,247,0.0,0.0,54,0.00,,,0.00,WUHU21636XXSP,2013-02-20 16:44:00,
2013-02-20 10:49:00,15.8,2.4,30.38,South,180,0.0,0.0,55,0.00,,,0.00,WUHU21636XXSP,2013-02-20 16:49:00,
2013-02-20 10:54:00,16.4,1.8,30.37,SW,225,0.0,0.0,52,0.00,,,0.00,WUHU21636XXSP,2013-02-20 16:54:00,
2013-02-20 10:59:00,16.7,2.1,30.37,WSW,247,0.0,0.0,52,0.00,,,0.00,WUHU21636XXSP,2013-02-20 16:59:00,
2013-02-20 11:04:00,15.8,0.8,30.37,WSW,247,0.0,0.0,51,0.00,,,0.00,WUHU21636XXSP,2013-02-20 17:04:00,
2013-02-20 11:09:00,16.0,1.4,30.38,SW,225,0.0,0.0,52,0.00,,,0.00,WUHU21636XXSP,2013-02-20 17:09:00,
2013-02-20 11:15:00,17.5,2.4,30.37,SSW,202,0.0,0.0,51,0.00,,,0.00,WUHU21636XXSP,2013-02-20 17:15:00,
2013-02-20 11:20:00,18.3,2.7,30.37,SSW,202,0.0,0.0,50,0.00,,,0.00,WUHU21636XXSP,2013-02-20 17:20:00,
2013-02-20 11:25:00,18.5,2.4,30.37,West,270,0.0,0.0,49,0.00,,,0.00,WUHU21636XXSP,2013-02-20 17:25:00,
2013-02-20 11:30:00,17.9,1.8,30.37,West,270,0.0,0.0,49,0.00,,,0.00,WUHU21636XXSP,2013-02-20 17:30:00,
2013-02-20 11:35:00,17.5,1.5,30.37,West,270,0.0,0.0,49,0.00,,,0.00,WUHU21636XXSP,2013-02-20 17:35:00,
2013-02-20 11:40:00,17.3,1.8,30.36,West,270,0.0,0.0,50,0.00,,,0.00,WUHU21636XXSP,2013-02-20 17:40:00,
2013-02-20 11:45:00,19.2,4.0,30.36,SSW,202,0.0,0.0,51,0.00,,,0.00,WUHU21636XXSP,2013-02-20 17:45:00,
2013-02-20 11:50:00,20.5,4.7,30.36,ENE,67,0.0,0.0,50,0.00,,,0.00,WUHU21636XXSP,2013-02-20 17:50:00,
2013-02-20 11:55:00,21.6,4.9,30.36,SW,225,0.0,0.0,48,0.00,,,0.00,WUHU21636XXSP,2013-02-20 17:55:00,
2013-02-20 12:00:00,21.6,4.4,30.36,SW,225,0.0,0.0,47,0.00,,,0.00,WUHU21636XXSP,2013-02-20 18:00:00,
2013-02-20 12:05:00,21.4,3.2,30.35,WSW,247,0.0,0.0,45,0.00,,,0.00,WUHU21636XXSP,2013-02-20 18:05:00,
2013-02-20 12:10:00,20.5,3.3,30.35,SW,225,0.0,0.0,47,0.00,,,0.00,WUHU21636XXSP,2013-02-20 18:10:00,
2013-02-20 12:15:00,20.5,3.3,30.35,WSW,247,0.0,0.0,47,0.00,,,0.00,WUHU21636XXSP,2013-02-20 18:15:00,
2013-02-20 12:20:00,20.5,3.8,30.35,WSW,247,0.0,0.0,48,0.00,,,0.00,WUHU21636XXSP,2013-02-20 18:20:00,
2013-02-20 12:25:00,21.1,3.9,30.34,West,270,0.0,0.0,47,0.00,,,0.00,WUHU21636XXSP,2013-02-20 18:25:00,
2013-02-20 12:30:00,21.6,5.3,30.35,WSW,247,0.0,0.0,49,0.00,,,0.00,WUHU21636XXSP,2013-02-20 18:30:00,
2013-02-20 12:35:00,21.6,3.9,30.35,West,270,0.0,0.0,46,0.00,,,0.00,WUHU21636XXSP,2013-02-20 18:35:00,
2013-02-20 12:40:00,21.6,4.9,30.35,WSW,247,0.0,0.0,48,0.00,,,0.00,WUHU21636XXSP,2013-02-20 18:40:00,
2013-02-20 12:45:00,23.3,5.4,30.35,South,180,0.0,0.0,46,0.00,,,0.00,WUHU21636XXSP,2013-02-20 18:45:00,
2013-02-20 12:50:00,23.3,5.4,30.35,WSW,247,0.0,0.0,46,0.00,,,0.00,WUHU21636XXSP,2013-02-20 18:50:00,
2013-02-20 12:55:00,23.3,5.4,30.35,WSW,247,0.0,0.0,46,0.00,,,0.00,WUHU21636XXSP,2013-02-20 18:55:00,
2013-02-20 13:00:00,24.3,5.8,30.35,West,270,0.0,0.0,45,0.00,,,0.00,WUHU21636XXSP,2013-02-20 19:00:00,
2013-02-20 13:05:00,23.0,5.2,30.36,West,270,0.0,0.0,46,0.00,,,0.00,WUHU21636XXSP,2013-02-20 19:05:00,
2013-02-20 13:10:00,23.5,5.1,30.36,NNW,337,0.0,0.0,45,0.00,,,0.00,WUHU21636XXSP,2013-02-20 19:10:00,
2013-02-20 13:15:00,23.0,5.2,30.36,NW,315,0.0,0.0,46,0.00,,,0.00,WUHU21636XXSP,2013-02-20 19:15:00,
2013-02-20 13:20:00,23.0,5.6,30.36,WNW,292,0.0,0.0,47,0.00,,,0.00,WUHU21636XXSP,2013-02-20 19:20:00,
2013-02-20 13:25:00,22.8,4.5,30.36,WNW,292,0.0,0.0,45,0.00,,,0.00,WUHU21636XXSP,2013-02-20 19:25:00,
2013-02-20 13:30:00,23.3,5.4,30.36,West,270,0.0,0.0,46,0.00,,,0.00,WUHU21636XXSP,2013-02-20 19:30:00,
2013-02-20 13:35:00,24.5,6.0,30.37,WSW,247,0.0,0.0,45,0.00,,,0.00,WUHU21636XXSP,2013-02-20 19:35:00,
2013-02-20 13:40:00,24.9,6.9,30.37,SW,225,0.0,0.0,46,0.00,,,0.00,WUHU21636XXSP,2013-02-20 19:40:00,
2013-02-20 13:45:00,25.8,7.8,30.38,SW,225,0.0,0.0,46,0.00,,,0.00,WUHU21636XXSP,2013-02-20 19:45:00,
2013-02-20 13:50:00,24.9,6.9,30.38,SSW,202,0.0,0.0,46,0.00,,,0.00,WUHU21636XXSP,2013-02-20 19:50:00,
2013-02-20 13:55:00,25.4,7.4,30.38,SW,225,0.0,0.0,46,0.00,,,0.00,WUHU21636XXSP,2013-02-20 19:55:00,
2013-02-20 14:00:00,23.9,6.0,30.38,SSW,202,0.0,0.0,46,0.00,,,0.00,WUHU21636XXSP,2013-02-20 20:00:00,
2013-02-20 14:05:00,24.9,6.9,30.38,SW,225,0.0,0.0,46,0.00,,,0.00,WUHU21636XXSP,2013-02-20 20:05:00,
2013-02-20 14:10:00,25.2,7.2,30.38,SW,225,0.0,0.0,46,0.00,,,0.00,WUHU21636XXSP,2013-02-20 20:10:00,
2013-02-20 14:15:00,25.6,6.6,30.38,WSW,247,0.0,0.0,44,0.00,,,0.00,WUHU21636XXSP,2013-02-20 20:15:00,
2013-02-20 14:20:00,26.8,8.6,30.37,SW,225,0.0,0.0,46,0.00,,,0.00,WUHU21636XXSP,2013-02-20 20:20:00,
2013-02-20 14:25:00,27.1,8.4,30.37,SW,225,0.0,0.0,45,0.00,,,0.00,WUHU21636XXSP,2013-02-20 20:25:00,
2013-02-20 14:30:00,27.7,8.0,30.37,SW,225,0.0,0.0,43,0.00,,,0.00,WUHU21636XXSP,2013-02-20 20:30:00,
2013-02-20 14:35:00,27.7,8.0,30.37,SSW,202,0.0,0.0,43,0.00,,,0.00,WUHU21636XXSP,2013-02-20 20:35:00,
2013-02-20 14:40:00,28.0,8.2,30.37,South,180,0.0,0.0,43,0.00,,,0.00,WUHU21636XXSP,2013-02-20 20:40:00,
2013-02-20 14:45:00,28.2,7.9,30.37,WSW,247,0.0,0.0,42,0.00,,,0.00,WUHU21636XXSP,2013-02-20 20:45:00,
2013-02-20 14:50:00,28.0,6.6,30.37,WSW,247,0.0,0.0,40,0.00,,,0.00,WUHU21636XXSP,2013-02-20 20:50:00,
2013-02-20 14:55:00,25.8,5.7,30.37,North,0,0.0,0.0,42,0.00,,,0.00,WUHU21636XXSP,2013-02-20 20:55:00,
2013-02-20 15:00:00,26.1,6.0,30.37,NE,45,0.0,0.0,42,0.00,,,0.00,WUHU21636XXSP,2013-02-20 21:00:00,
2013-02-20 15:05:00,26.8,7.1,30.37,ENE,67,0.0,0.0,43,0.00,,,0.00,WUHU21636XXSP,2013-02-20 21:05:00,
2013-02-20 15:10:00,26.8,7.1,30.37,ENE,67,0.0,0.0,43,0.00,,,0.00,WUHU21636XXSP,2013-02-20 21:10:00,
2013-02-20 15:15:00,27.1,6.3,30.36,WSW,247,0.0,0.0,41,0.00,,,0.00,WUHU21636XXSP,2013-02-20 21:15:00,
2013-02-20 15:20:00,26.4,6.2,30.36,WSW,247,0.0,0.0,42,0.00,,,0.00,WUHU21636XXSP,2013-02-20 21:20:00,
2013-02-20 15:25:00,26.1,6.0,30.36,WSW,247,0.0,0.0,42,0.00,,,0.00,WUHU21636XXSP,2013-02-20 21:25:00,
2013-02-20 15:30:00,26.1,7.5,30.36,SE,135,0.0,0.0,45,0.00,,,0.00,WUHU21636XXSP,2013-02-20 21:30:00,
2013-02-20 15:35:00,27.1,8.9,30.36,SE,135,0.0,0.0,46,0.00,,,0.00,WUHU21636XXSP,2013-02-20 21:35:00,
2013-02-20 15:40:00,27.7,8.5,30.36,ESE,112,0.0,0.0,44,0.00,,,0.00,WUHU21636XXSP,2013-02-20 21:40:00,
2013-02-20 15:45:00,27.7,8.0,30.36,South,180,0.0,0.0,43,0.00,,,0.00,WUHU21636XXSP,2013-02-20 21:45:00,
2013-02-20 15:50:00,26.8,6.6,30.36,WNW,292,0.0,0.0,42,0.00,,,0.00,WUHU21636XXSP,2013-02-20 21:50:00,
2013-02-20 15:55:00,25.6,6.6,30.36,West,270,0.0,0.0,44,0.00,,,0.00,WUHU21636XXSP,2013-02-20 21:55:00,
2013-02-20 16:00:00,25.8,7.3,30.36,SW,225,0.0,0.0,45,0.00,,,0.00,WUHU21636XXSP,2013-02-20 22:00:00,
2013-02-20 16:05:00,25.8,7.3,30.36,South,180,0.0,0.0,45,0.00,,,0.00,WUHU21636XXSP,2013-02-20 22:05:00,
2013-02-20 16:10:00,25.4,6.9,30.36,South,180,0.0,0.0,45,0.00,,,0.00,WUHU21636XXSP,2013-02-20 22:10:00,
2013-02-20 16:15:00,24.5,5.5,30.35,West,270,0.0,0.0,44,0.00,,,0.00,WUHU21636XXSP,2013-02-20 22:15:00,
2013-02-20 16:20:00,23.9,5.5,30.35,WNW,292,0.0,0.0,45,0.00,,,0.00,WUHU21636XXSP,2013-02-20 22:20:00,
2013-02-20 16:25:00,23.7,5.8,30.35,NE,45,0.0,0.0,46,0.00,,,0.00,WUHU21636XXSP,2013-02-20 22:25:00,
2013-02-20 16:30:00,23.5,6.1,30.35,South,180,0.0,0.0,47,0.00,,,0.00,WUHU21636XXSP,2013-02-20 22:30:00,
2013-02-20 16:35:00,23.7,6.8,30.35,ESE,112,0.0,0.0,48,0.00,,,0.00,WUHU21636XXSP,2013-02-20 22:35:00,
2013-02-20 16:40:00,23.7,6.8,30.35,SE,135,0.0,0.0,48,0.00,,,0.00,WUHU21636XXSP,2013-02-20 22:40:00,
2013-02-20 16:45:00,23.5,6.6,30.35,South,180,0.0,0.0,48,0.00,,,0.00,WUHU21636XXSP,2013-02-20 22:45:00,
2013-02-20 16:50:00,23.5,6.6,30.35,South,180,0.0,0.0,48,0.00,,,0.00,WUHU21636XXSP,2013-02-20 22:50:00,
2013-02-20 16:55:00,23.3,6.4,30.35,South,180,0.0,0.0,48,0.00,,,0.00,WUHU21636XXSP,2013-02-20 22:55:00,
2013-02-20 17:00:00,23.2,6.8,30.35,South,180,0.0,0.0,49,0.00,,,0.00,WUHU21636XXSP,2013-02-20 23:00:00,
2013-02-20 17:05:00,23.0,6.6,30.35,SE,135,0.0,0.0,49,0.00,,,0.00,WUHU21636XXSP,2013-02-20 23:05:00,
2013-02-20 17:10:00,22.8,6.8,30.35,SE,135,0.0,0.0,50,0.00,,,0.00,WUHU21636XXSP,2013-02-20 23:10:00,
2013-02-20 17:15:00,22.6,6.7,30.35,SE,135,0.0,0.0,50,0.00,,,0.00,WUHU21636XXSP,2013-02-20 23:15:00,
2013-02-20 17:20:00,22.6,6.7,30.34,SE,135,0.0,0.0,50,0.00,,,0.00,WUHU21636XXSP,2013-02-20 23:20:00,
2013-02-20 17:25:00,22.3,6.4,30.34,SE,135,0.0,0.0,50,0.00,,,0.00,WUHU21636XXSP,2013-02-20 23:25:00,
2013-02-20 17:30:00,21.8,6.4,30.34,SE,135,0.0,0.0,51,0.00,,,0.00,WUHU21636XXSP,2013-02-20 23:30:00,
2013-02-20 17:35:00,21.8,6.4,30.34,SE,135,0.0,0.0,51,0.00,,,0.00,WUHU21636XXSP,2013-02-20 23:35:00,
2013-02-20 17:40:00,21.6,6.7,30.34,SE,135,0.0,0.0,52,0.00,,,0.00,WUHU21636XXSP,2013-02-20 23:40:00,
2013-02-20 17:45:00,21.1,6.2,30.34,SE,135,0.0,0.0,52,0.00,,,0.00,WUHU21636XXSP,2013-02-20 23:45:00,
2013-02-20 17:50:00,21.1,6.6,30.34,SE,135,0.0,0.0,53,0.00,,,0.00,WUHU21636XXSP,2013-02-20 23:50:00,
2013-02-20 17:55:00,20.5,6.0,30.34,SE,135,0.0,0.0,53,0.00,,,0.00,WUHU21636XXSP,2013-02-20 23:55:00,
2013-02-20 18:00:00,20.2,5.7,30.34,SE,135,0.0,0.0,53,0.00,,,0.00,WUHU21636XXSP,2013-02-21 00:00:00,
2013-02-20 18:05:00,20.2,5.7,30.34,SE,135,0.0,0.0,53,0.00,,,0.00,WUHU21636XXSP,2013-02-21 00:05:00,
2013-02-20 18:10:00,20.0,5.5,30.34,SE,135,0.0,0.0,53,0.00,,,0.00,WUHU21636XXSP,2013-02-21 00:10:00,
2013-02-20 18:15:00,19.7,5.8,30.34,SE,135,0.0,0.0,54,0.00,,,0.00,WUHU21636XXSP,2013-02-21 00:15:00,
2013-02-20 18:20:00,19.5,6.0,30.34,SE,135,0.0,0.0,55,0.00,,,0.00,WUHU21636XXSP,2013-02-21 00:20:00,
2013-02-20 18:25:00,19.4,5.9,30.34,SE,135,0.0,0.0,55,0.00,,,0.00,WUHU21636XXSP,2013-02-21 00:25:00,
2013-02-20 18:30:00,19.0,5.5,30.35,SE,135,0.0,0.0,55,0.00,,,0.00,WUHU21636XXSP,2013-02-21 00:30:00,
2013-02-20 18:35:00,18.6,4.7,30.35,West,270,0.0,0.0,54,0.00,,,0.00,WUHU21636XXSP,2013-02-21 00:35:00,
2013-02-20 18:40:00,18.6,5.1,30.34,West,270,0.0,0.0,55,0.00,,,0.00,WUHU21636XXSP,2013-02-21 00:40:00,
2013-02-20 18:45:00,18.6,5.5,30.34,West,270,0.0,0.0,56,0.00,,,0.00,WUHU21636XXSP,2013-02-21 00:45:00,
2013-02-20 18:50:00,18.5,5.4,30.35,West,270,0.0,0.0,56,0.00,,,0.00,WUHU21636XXSP,2013-02-21 00:50:00,
2013-02-20 18:55:00,18.3,5.2,30.35,West,270,0.0,0.0,56,0.00,,,0.00,WUHU21636XXSP,2013-02-21 00:55:00,
2013-02-20 19:00:00,17.9,4.8,30.35,West,270,0.0,0.0,56,0.00,,,0.00,WUHU21636XXSP,2013-02-21 01:00:00,
2013-02-20 19:05:00,17.9,4.8,30.35,West,270,0.0,0.0,56,0.00,,,0.00,WUHU21636XXSP,2013-02-21 01:05:00,
2013-02-20 19:10:00,17.6,4.6,30.35,West,270,0.0,0.0,56,0.00,,,0.00,WUHU21636XXSP,2013-02-21 01:10:00,
2013-02-20 19:15:00,17.5,4.9,30.35,West,270,0.0,0.0,57,0.00,,,0.00,WUHU21636XXSP,2013-02-21 01:15:00,
2013-02-20 19:20:00,17.3,4.7,30.34,West,270,0.0,0.0,57,0.00,,,0.00,WUHU21636XXSP,2013-02-21 01:20:00,
2013-02-20 19:25:00,16.9,4.7,30.34,West,270,0.0,0.0,58,0.00,,,0.00,WUHU21636XXSP,2013-02-21 01:25:00,
2013-02-20 19:30:00,16.9,4.7,30.34,West,270,0.0,0.0,58,0.00,,,0.00,WUHU21636XXSP,2013-02-21 01:30:00,
2013-02-20 19:35:00,16.4,4.2,30.34,West,270,0.0,0.0,58,0.00,,,0.00,WUHU21636XXSP,2013-02-21 01:35:00,
2013-02-20 19:40:00,16.4,4.6,30.34,West,270,0.0,0.0,59,0.00,,,0.00,WUHU21636XXSP,2013-02-21 01:40:00,
2013-02-20 19:45:00,16.0,4.2,30.34,West,270,0.0,0.0,59,0.00,,,0.00,WUHU21636XXSP,2013-02-21 01:45:00,
2013-02-20 19:50:00,15.8,4.3,30.34,West,270,0.0,0.0,60,0.00,,,0.00,WUHU21636XXSP,2013-02-21 01:50:00,
2013-02-20 19:55:00,15.6,4.2,30.33,West,270,0.0,0.0,60,0.00,,,0.00,WUHU21636XXSP,2013-02-21 01:55:00,
2013-02-20 20:00:00,15.0,3.7,30.34,West,270,0.0,0.0,60,0.00,,,0.00,WUHU21636XXSP,2013-02-21 02:00:00,
2013-02-20 20:05:00,15.0,4.0,30.34,West,270,0.0,0.0,61,0.00,,,0.00,WUHU21636XXSP,2013-02-21 02:05:00,
2013-02-20 20:10:00,14.8,4.2,30.34,West,270,0.0,0.0,62,0.00,,,0.00,WUHU21636XXSP,2013-02-21 02:10:00,
2013-02-20 20:15:00,14.8,4.2,30.34,West,270,0.0,0.0,62,0.00,,,0.00,WUHU21636XXSP,2013-02-21 02:15:00,
2013-02-20 20:20:00,14.5,3.9,30.34,West,270,0.0,0.0,62,0.00,,,0.00,WUHU21636XXSP,2013-02-21 02:20:00,
2013-02-20 20:25:00,14.5,3.9,30.34,West,270,0.0,0.0,62,0.00,,,0.00,WUHU21636XXSP,2013-02-21 02:25:00,
2013-02-20 20:30:00,14.3,4.0,30.34,West,270,0.0,0.0,63,0.00,,,0.00,WUHU21636XXSP,2013-02-21 02:30:00,
2013-02-20 20:35:00,14.1,3.8,30.33,West,270,0.0,0.0,63,0.00,,,0.00,WUHU21636XXSP,2013-02-21 02:35:00,
2013-02-20 20:40:00,14.1,3.8,30.33,West,270,0.0,0.0,63,0.00,,,0.00,WUHU21636XXSP,2013-02-21 02:40:00,
2013-02-20 20:45:00,14.1,3.8,30.33,West,270,0.0,0.0,63,0.00,,,0.00,WUHU21636XXSP,2013-02-21 02:45:00,
2013-02-20 20:50:00,13.9,4.0,30.33,West,270,0.0,0.0,64,0.00,,,0.00,WUHU21636XXSP,2013-02-21 02:50:00,
2013-02-20 20:55:00,13.8,3.9,30.33,West,270,0.0,0.0,64,0.00,,,0.00,WUHU21636XXSP,2013-02-21 02:55:00,
2013-02-20 21:00:00,13.5,3.7,30.33,West,270,0.0,0.0,64,0.00,,,0.00,WUHU21636XXSP,2013-02-21 03:00:00,
2013-02-20 21:05:00,13.5,3.7,30.33,West,270,0.0,0.0,64,0.00,,,0.00,WUHU21636XXSP,2013-02-21 03:05:00,
2013-02-20 21:10:00,13.1,3.3,30.33,West,270,0.0,0.0,64,0.00,,,0.00,WUHU21636XXSP,2013-02-21 03:10:00,
2013-02-20 21:15:00,13.1,3.3,30.33,West,270,0.0,0.0,64,0.00,,,0.00,WUHU21636XXSP,2013-02-21 03:15:00,
2013-02-20 21:20:00,12.9,3.1,30.33,West,270,0.0,0.0,64,0.00,,,0.00,WUHU21636XXSP,2013-02-21 03:20:00,
2013-02-20 21:25:00,12.9,3.4,30.33,West,270,0.0,0.0,65,0.00,,,0.00,WUHU21636XXSP,2013-02-21 03:25:00,
2013-02-20 21:31:00,12.6,3.4,30.33,West,270,0.0,0.0,66,0.00,,,0.00,WUHU21636XXSP,2013-02-21 03:31:00,
2013-02-20 21:36:00,12.6,3.4,30.34,West,270,0.0,0.0,66,0.00,,,0.00,WUHU21636XXSP,2013-02-21 03:36:00,
2013-02-20 21:41:00,12.2,3.0,30.34,West,270,0.0,0.0,66,0.00,,,0.00,WUHU21636XXSP,2013-02-21 03:41:00,
2013-02-20 21:46:00,12.0,3.8,30.35,West,270,0.0,0.0,69,0.00,,,0.00,WUHU21636XXSP,2013-02-21 03:46:00,
2013-02-20 21:51:00,11.9,3.7,30.35,West,270,0.0,0.0,69,0.00,,,0.00,WUHU21636XXSP,2013-02-21 03:51:00,
2013-02-20 21:56:00,11.7,3.2,30.36,West,270,0.0,0.0,68,0.00,,,0.00,WUHU21636XXSP,2013-02-21 03:56:00,
2013-02-20 22:01:00,11.2,2.8,30.36,West,270,0.0,0.0,68,0.00,,,0.00,WUHU21636XXSP,2013-02-21 04:01:00,
2013-02-20 22:06:00,11.0,2.6,30.36,West,270,0.0,0.0,68,0.00,,,0.00,WUHU21636XXSP,2013-02-21 04:06:00,
2013-02-20 22:11:00,11.0,2.6,30.36,West,270,0.0,0.0,68,0.00,,,0.00,WUHU21636XXSP,2013-02-21 04:11:00,
2013-02-20 22:16:00,10.7,2.3,30.36,West,270,0.0,0.0,68,0.00,,,0.00,WUHU21636XXSP,2013-02-21 04:16:00,
2013-02-20 22:21:00,10.7,2.3,30.36,West,270,0.0,0.0,68,0.00,,,0.00,WUHU21636XXSP,2013-02-21 04:21:00,
2013-02-20 22:26:00,10.5,2.1,30.36,West,270,0.0,0.0,68,0.00,,,0.00,WUHU21636XXSP,2013-02-21 04:26:00,
2013-02-20 22:31:00,10.3,1.6,30.35,West,270,0.0,0.0,67,0.00,,,0.00,WUHU21636XXSP,2013-02-21 04:31:00,
2013-02-20 22:36:00,10.1,1.7,30.35,West,270,0.0,0.0,68,0.00,,,0.00,WUHU21636XXSP,2013-02-21 04:36:00,
2013-02-20 22:41:00,10.0,1.6,30.36,West,270,0.0,0.0,68,0.00,,,0.00,WUHU21636XXSP,2013-02-21 04:41:00,
2013-02-20 22:46:00,10.0,1.6,30.36,West,270,0.0,0.0,68,0.00,,,0.00,WUHU21636XXSP,2013-02-21 04:46:00,
2013-02-20 22:51:00,9.8,1.4,30.36,West,270,0.0,0.0,68,0.00,,,0.00,WUHU21636XXSP,2013-02-21 04:51:00,
2013-02-20 22:56:00,9.8,1.4,30.36,West,270,0.0,0.0,68,0.00,,,0.00,WUHU21636XXSP,2013-02-21 04:56:00,
2013-02-20 23:00:00,9.8,1.4,30.36,West,270,0.0,0.0,68,0.00,,,0.00,WUHU21636XXSP,2013-02-21 05:00:00,
2013-02-20 23:01:00,9.8,1.4,30.36,West,270,0.0,0.0,68,0.00,,,0.00,WUHU21636XXSP,2013-02-21 05:01:00,
2013-02-20 23:06:00,9.6,1.2,30.35,West,270,0.0,0.0,68,0.00,,,0.00,WUHU21636XXSP,2013-02-21 05:06:00,
2013-02-20 23:11:00,9.3,1.0,30.35,West,270,0.0,0.0,68,0.00,,,0.00,WUHU21636XXSP,2013-02-21 05:11:00,
2013-02-20 23:16:00,9.3,1.0,30.35,West,270,0.0,0.0,68,0.00,,,0.00,WUHU21636XXSP,2013-02-21 05:16:00,
2013-02-20 23:21:00,9.1,0.8,30.35,West,270,0.0,0.0,68,0.00,,,0.00,WUHU21636XXSP,2013-02-21 05:21:00,
2013-02-20 23:26:00,9.1,1.1,30.35,West,270,0.0,0.0,69,0.00,,,0.00,WUHU21636XXSP,2013-02-21 05:26:00,
2013-02-20 23:31:00,9.1,1.1,30.35,West,270,0.0,0.0,69,0.00,,,0.00,WUHU21636XXSP,2013-02-21 05:31:00,
2013-02-20 23:36:00,9.1,1.1,30.35,West,270,0.0,0.0,69,0.00,,,0.00,WUHU21636XXSP,2013-02-21 05:36:00,
2013-02-20 23:41:00,9.1,1.1,30.36,West,270,0.0,0.0,69,0.00,,,0.00,WUHU21636XXSP,2013-02-21 05:41:00,
2013-02-20 23:46:00,8.8,0.5,30.36,West,270,0.0,0.0,68,0.00,,,0.00,WUHU21636XXSP,2013-02-21 05:46:00,
2013-02-20 23:51:00,8.6,0.3,30.36,West,270,0.0,0.0,68,0.00,,,0.00,WUHU21636XXSP,2013-02-21 05:51:00,
2013-02-20 23:56:00,8.6,0.3,30.36,West,270,0.0,0.0,68,0.00,,,0.00,WUHU21636XXSP,2013-02-21 05:56:00,